Location: Kennington
(51.1500°N, 0.8833°E)
Time: 11:35:10
(UTC+00:00)

ADEOS II - Pass Details

Date: 21 September 2020
Orbit: 799 x 801 km, 98.5° (Epoch: 30 October)

Event Time Altitude Azimuth Distance (km) Brightness Sun altitude
Rises 02:17:56 0° 16° (NNE) 3,322 6.2 -29.5°
Reaches altitude 10° 02:20:17 10° 18° (NNE) 2,387 5.3 -29.3°
Enters shadow 02:25:24 72° 88° (E) 845 2.2 -28.7°
